Location: Albany
(35.0170°S, 117.8920°E)
Time: 16:13:48
(UTC+08:00)

Transit 2A - Pass Details

Date: 29 January 2021
Orbit: 601 x 958 km, 66.7° (Epoch: 02 March)

Event Time Altitude Azimuth Distance (km) Brightness Sun altitude
Rises 13:25:12 0° 6° (N) 2,927 9.2 67.8°
Reaches altitude 10° 13:27:43 10° 19° (NNE) 2,071 8.5 67.4°
Maximum altitude 13:31:31 25° 74° (ENE) 1,400 7.6 66.9°
Drops below altitude 10° 13:35:38 10° 128° (SE) 2,262 8.3 66.2°
Sets 13:38:30 0° 140° (SE) 3,264 9.0 65.8°
